User: anonymous   Login
Location: Unspecified
(0.0000°N, 0.0000°E)
Time: 10:39:24
(UTC+00:00)
Language:

NOAA 17 - Orbit

View from above orbital plane
View from above orbital plane
View from above satellite
View from above satellite

Ground track
Ground track

The orbit data is extracted from the following two-line orbital elements,

1 27453U 02032A   15090.48415149  .00000170  00000-0  90329-4 0  9994
2 27453 098.3354 080.3485 0012768 054.6151 305.6220 14.24866067663590
Epoch (UTC): 31 March 2015 11:37:10
Eccentricity: 0.0012768
inclination: 98.3354°
perigee height: 800 km
apogee height: 818 km
right ascension of ascending node: 80.3485°
argument of perigee: 54.6151°
revolutions per day: 14.24866067
mean anomaly at epoch: 305.6220°
orbit number at epoch: 66359

The dashed part of the orbit path shows where the satellite is in the earth's shadow,  

DLR